NWS Melbourne » East Central Florida Hourly Weather Roundup

MIARWRMLB 000
TTAA00 KMLB 172011
HOURLY WEATHER ROUNDUP AROUND FLORIDA
NATIONAL WEATHER SERVICE OFFICE MELBOURNE FL
300 PM EST WED DEC 17 2014
  
CITY           SKY/WX    TMP DP  RH WIND       PRES   REMARKS
MELBOURNE      SUNNY     76  58  53 VRB6      30.09F                  
FORT PIERCE    MOSUNNY   76  60  57 W12       30.09F                  
ORLANDO INTL   MOSUNNY   74  50  42 W8        30.10F                  
DAYTONA BEACH  MOSUNNY   71  46  40 W8        30.09F                  
VERO BEACH     SUNNY     75  60  59 SW8       30.09F                  
$$
...ELSEWHERE ACROSS CENTRAL FLORIDA...
  
CITY           SKY/WX    TMP DP  RH WIND       PRES   REMARKS
PATRICK AFB    SUNNY     68  58  71 E7        30.09F                  
JFK SPACE CTR  SUNNY     69  55  59 NE5       30.09F                  
CAPE CANAVERAL SUNNY     68  56  65 NE6       30.08F                  
TITUSVILLE     SUNNY     73  50  43 W9        30.09                   
ORLANDO EXEC   SUNNY     73  44  35 W9        30.09F                  
LEESBURG       SUNNY     71  43  36 W9        30.11F                  
SANFORD        SUNNY     72  45  37 W5        30.10F                  
WINTER HAVEN   SUNNY     76  54  46 W12       30.11F                  
KISSIMMEE      SUNNY     75  52  43 W10       30.10F                  
OKEECHOBEE     MOSUNNY   75  61  60 W6        30.10F                  
TAMPA          MOSUNNY   71  52  50 W5        30.12F                  
$$
...NORTHERN FLORIDA...
  
CITY           SKY/WX    TMP DP  RH WIND       PRES   REMARKS
DELAND         SUNNY    N/A N/A N/A NW3       30.10F                  
NEW SMYRNA BCH SUNNY     66  54  63 NE6       30.11F                  
ORMOND BEACH   SUNNY     70  43  37 W7        30.10F                  
PALM COAST     CLEAR    N/A N/A N/A W6        30.08F                  
ST AUGUSTINE   SUNNY     67  44  43 W7        30.10F                  
OCALA          SUNNY     70  43  37 W6        30.11F                  
GAINESVILLE    SUNNY     69  42  37 W8        30.11F                  
JACKSONVILLE   MOSUNNY   66  41  40 NW9       30.10F                  
TALLAHASSEE    PTSUNNY   64  40  41 W3        30.14F                  
$$
...ALONG THE SOUTHEAST COAST TO THE KEYS...
  
CITY           SKY/WX    TMP DP  RH WIND       PRES   REMARKS
STUART         MOSUNNY   75  57  53 W8        30.11F                  
WEST PALM BCH  MOSUNNY   79  56  45 SW6       30.09F                  
MIAMI          SUNNY     79  49  34 VRB5      30.10F                  
KEY WEST       SUNNY     76  58  53 NE7       30.12F                  
$$
...MARINE REPORTS...
  
STATION/POSITION TIME  TEMP    WIND        PRES    WAVE   SWELL
                       AIR SEA DIR/SP/G            HT/PER HT/PER/DIR
                 (UTC) (F)     (DEG/KT/KT) (MB)    (FT/S) (FT/S/D)
ST AUGUSTINE FP  2000   60      80/  6/  7 1019.8F
20NM E CAPE CANA 2000   67 76  310/  4/  6 1019.3F   2/10   2/ 70/10
120 E NEW SMYRNA 1900   71 76  290/ 12/ 16 1018.8F
TRIDENT PIER     2000   67 65   90/  6/  8 1018.6S
SEBASTIAN INLET  2000   72     270/  6     1020.0S
4NM E PORT CANAV 2000      67                N/A     1/11
6NM NE FPR INLET 2000      76                N/A     1/11
SETTLEMENT PT GB 2000   74     300/  6/  8 1020.1F
$$
  
 


USA.gov is the U.S. government's official web portal to all federal, state and local government web resources and services.